ECHOSTAR 12 (RAINBOW 1)

Last updated on Mon Nov 04 2019 04:20:32 GMT+0000 (Coordinated Universal Time)

1 27852U 03033A 19307.35623721 .00000057 00000-0 00000+0 0 9993 2 27852 0.0487 86.0646 0001309 72.9151 243.5276 0.98954301 59702
UTC large
Height (km)
Speed (km/s)
/
Latitude / Longitude
Inclination (degrees)
Orbital Period (minutes)
Azimuth
Elevation
Range (km)
Doppler Factor

Next 0 passes for location: London (51.5072 / 0.1276)

Sorry there are no passes over London.